Retour au catalogue

SL-8 R/B

ActifPO
NORAD 12088·ROCKET BODY·🇷🇺 Russia

Lancé Dec 5, 1980 depuis Plesetsk Cosmodrome

Loading…

Prochains Passages (prochaines 24 heures)

TLE

FraisSource: Space-Track

Époque: Sep 14, 2026, 05:38 UTC

1 12088U 80097B   26257.23526199  .00000063  00000-0  48098-4 0  9994
2 12088  82.9472 352.4752 0048181 337.1739  22.7276 13.77346963299652

Suivez SL-8 R/B en temps réel avec AllMySat

Download on the App Store